Location: Guferjoch
(46.7462°N, 8.4506°E)
Time: 23:53:37
(UTC+00:00)

AQUA - Pass Details

Date: 14 July 2020
Orbit: 701 x 704 km, 98.2° (Epoch: 14 August)

Event Time Altitude Azimuth Distance (km) Brightness Sun altitude
Rises 01:26:28 0° 14° (NNE) 3,105 8.7 -16.9°
Reaches altitude 10° 01:28:44 10° 15° (NNE) 2,181 7.6 -16.7°
Maximum altitude 01:33:32 84° 104° (ESE) 713 3.8 -16.3°
Enters shadow 01:36:15 26° 191° (S) 1,368 4.8 -16.1°
